Regional Weather Roundup
Issued by NWS Wakefield, VA

Home | Current Version | Previous Version | Graphics & Text | Print | Product List | Glossary On
Versions: 1 2 3 4 5 6 7 8 9 10 11 12 13 14 15 16 17 18 19 20 21 22 23 24 25 26
000
ASUS41 KAKQ 240615
RWRAKQ

REGIONAL WEATHER ROUNDUP
NATIONAL WEATHER SERVICE WAKEFIELD VA
200 AM EDT TUE APR 24 2018

Note: "fair" indicates few or no clouds below 12,000 feet with no
significant weather and/or obstructions to visibility. * = Denotes
station may not report precipitation (e.g., rain,snow,etc.),
thunder or fog.

VAZ042-051-052>054-056-240700-
NORTHERN VIRGINIA

CITY           SKY/WX    TMP DP  RH WIND       PRES   REMARKS
WASH NATIONAL  CLOUDY    56  34  43 SE7       30.34F
DULLES         CLOUDY    54  37  52 SE7       30.33S
FORT BELVOIR   NOT AVBL
QUANTICO       FAIR      56  43  61 SE10      30.33F
FREDERICKSBRG* MOCLDY    55  42  63 E3        30.31F
STAFFORD*      FAIR      55  43  65 E5        30.35F
WARRENTON      MOCLDY    55  38  52 E3        30.31F
CULPEPER*      MOCLDY    55  36  47 CALM      30.32F
MANASSAS*      FAIR      55  38  52 SE8       30.33F
LEESBURG*      FAIR      55  36  47 SE7       30.34S
WINCHESTER     LGT RAIN  52  32  46 SE7       30.33S
FRONT ROYAL*   CLOUDY    54  34  47 SE8       30.30S
LURAY*         CLOUDY    55  37  50 SE9       30.28F
$$

VAZ048-049-060>072-079>083-240700-
CENTRAL AND SOUTH CENTRAL VIRGINIA

CITY           SKY/WX    TMP DP  RH WIND       PRES   REMARKS
RICHMOND       CLOUDY    55  42  61 E8        30.28F
CHESTERFIELD*  CLOUDY    56  42  59 E6        30.27F
PETERSBURG*    CLOUDY    56  41  58 E6        30.27F
HANOVER        CLOUDY    54  41  61 E5        30.29F
TAPPAHANNOCK*  FAIR      56  43  61 E7        30.31F
QUINTON*       MOCLDY    54  42  64 E7        30.28F
CHARLOTTSVILLE CLOUDY    57  39  51 E5        30.28F
GORDONSVILLE*  CLOUDY    54  40  59 NE3       30.29F
ORANGE*        CLOUDY    54  37  54 CALM      30.30F
LOUISA*        CLOUDY    54  39  57 E6        30.33F
BUMPASS*       CLOUDY    53  39  59 CALM      30.29F
FARMVILLE*     CLOUDY    55  47  75 N5        30.26S
CREWE*         CLOUDY    54  45  72 CALM      30.25F
FORT PICKETT*  CLOUDY    54  44  67 E6        30.25S
CHASE CITY*    CLOUDY    55  44  64 E6        30.21F
CLARKSVILLE*   CLOUDY    54  46  76 E8        30.20F
SOUTH HILL*    CLOUDY    55  46  74 CALM      30.27F
LAWRENCEVILLE* CLOUDY    56  43  61 E3        30.23F
EMPORIA*       CLOUDY    55  45  67 NE6       30.25F
$$

VAZ088>098-240700-
SOUTHEAST VIRGINIA

CITY           SKY/WX    TMP DP  RH WIND       PRES   REMARKS
NORFOLK        MOCLDY    57  47  69 E7        30.27F
VIRGINIA BEACH CLOUDY    55  49  80 E14G22    30.27F
NORFOLK NAVAL  MOCLDY    57  46  66 E9        30.28F
WEST POINT*    MOCLDY    55  43  62 E5        30.31F
SALUDA*        FAIR      54  48  80 E9        30.30F
NEWPORT NEWS   FAIR      56  46  69 E14       30.28F
LANGLEY AFB    NOT AVBL
FORT EUSTIS    NOT AVBL
WILLIAMSBURG*  FAIR      57  46  67 E3        30.29F
HR EXEC AP*    MOCLDY    56  47  71 E7        30.27F
FRANKLIN*      CLOUDY    56  46  68 E8        30.26F
US460-WAKEFLD  CLOUDY    56  47  71 E6        30.26F
$$

VAZ020-022-025-037-045-240700-
WEST CENTRAL AND SOUTHWEST VIRGINIA

CITY           SKY/WX    TMP DP  RH WIND       PRES   REMARKS
STAUNTON*      CLOUDY    53  38  56 SE3       30.29F
WAYNESBORO*    CLOUDY    52  39  59 SE6       30.27F
HOT SPRINGS VA RAIN      42  42 100 E15G28    30.20F VSB<1/4
LYNCHBURG      LGT RAIN  52  45  77 NE9       30.24F
DANVILLE       LGT RAIN  51  51 100 NE9       30.19F
SOUTH BOSTON*  CLOUDY    53  48  84 NE6       30.20F
MARTINSVILLE   HVY RAIN  50  48  93 E9        30.20F
ROANOKE        LGT RAIN  51  47  86 E10       30.24F
BLACKSBURG     LGT RAIN  49  47  95 E15G23    30.20F
DUBLIN*        LGT RAIN  50  48  93 E12G17    30.16F
MARION*        LGT RAIN  50  49  97 E15G22    30.11F
HILLSVILLE*    DRIZZLE   48  47  96 E16G26    30.10F
RICHLANDS*     CLOUDY    52  16  24 E8G29     30.05S
WISE*          FAIR      54  45  71 SE8G23    30.02S
ABINGDON*      CLOUDY    57  47  69 E13G21    30.03S
$$

MDZ021>025-VAZ099-100-240700-
SOUTHERN MARYLAND AND THE DELMARVA PENINSULA

CITY           SKY/WX    TMP DP  RH WIND       PRES   REMARKS
PATUXENT RIVER FAIR      56  44  64 SE7       30.33F
BAY BRIDGE APT FAIR      54  36  50 SE9       30.35F
LEONARDTOWN    FAIR      54  41  62 E6        30.34F
DOVER          NOT AVBL
GEORGETOWN     FAIR      47  37  68 SE3       30.37F
EASTON         FAIR      51  34  51 SE6       30.38F
CAMBRIDGE      CLEAR     50  37  62 E8        30.34F
SALISBURY      FAIR      48  36  63 E3        30.36F
TANGIER        FAIR      55  46  71 E14       30.32F
OCEAN CITY     FAIR      51  45  79 SE12      30.37F
WALLOPS ISLAND FAIR      55  43  63 E13       30.35F
ACCOMACK*      FAIR      54  44  69 E8G17     30.32F
$$

NCZ012>017-030>032-240700-
NORTH CENTRAL AND EASTERN NORTH CAROLINA

CITY           SKY/WX    TMP DP  RH WIND       PRES   REMARKS
ROANOKE RAPIDS CLOUDY    57  46  67 E7        30.21F
RALEIGH        LGT RAIN  55  51  86 E13       30.14F FOG
ELIZABETH CITY MOCLDY    60  51  72 E10       30.25F
AHOSKIE*       DRIZZLE   56  48  72 E7        30.22F
EDENTON*       CLOUDY    63  53  69 E12       30.23F
CURRITUCK*     NOT AVBL
KILL DEVIL HLS FAIR      57  49  73 SE8G17    30.25F
MANTEO         FAIR      60  49  68 SE12      30.26F
CAPE HATTERAS  FAIR      66  57  72 SE22      30.21F
TARBORO*       NOT AVBL
GOLDSBORO      CLOUDY    60  53  77 E10       30.11F
WASHINGTON     CLOUDY    61  51  70 CALM      30.18F
GREENVILLE     MOCLDY    61  50  67 E7        30.19F
NEW BERN       LGT RAIN  61  58  90 E9        30.16F
WILMINGTON     LGT RAIN  63  58  83 E17G26    30.08F
$$

VAZ048-240700-
ELSEWHERE

CITY           SKY/WX    TMP DP  RH WIND       PRES   REMARKS
HARRISBURG PA  CLOUDY    48  35  60 SE5       30.34F
BALTIMORE      CLOUDY    52  35  52 E5        30.34F
ANNAPOLIS      FAIR      57  42  57 SE12      30.34F
ANDREWS AFB    NOT AVBL
PHILADELPHIA   MOCLDY    47  33  58 E3        30.39F
HENDERSON NC   RAIN      51  46  83 E9        30.19F
GREENSBORO     HVY RAIN  52  51  97 E13       30.13S FOG
ROCKY MOUNT    LGT RAIN  59  49  69 E8        30.16F
$$

VAZ100-240700-
MARINE

STATION/POSITION TIME  TEMP    WIND        PRES    WAVE   SWELL
                       AIR SEA DIR/SP/G            HT/PER HT/PER
                 (UTC) (F)     (DEG/KT/KT) (MB)    (FT/S) (FT/S)
BRANDYWINE LGT   0536   52     130/ 12/ 13 1028.8F
CAPE MAY NJ      0536   49 51  110/  8/ 10 1028.2F
LEWES DE         0536   50 51  140/  6/  8 1028.5F
15NM E FENWICK I 0550   49 48  100/ 10/ 12 1028.7F   2/ 4   2/14
OCEAN-CITY-INLET 0536   52 51  130/  9/ 15 1028.8F
WACHAPREAGUE VA  0536   53 57  100/ 13/ 17 1027.1F
THOMAS POINT MD  0600   54 52  110/ 13/ 14 1028.2F
GOOSES REEF MD   0600   53     130/ 14/ 16 1027.5
COVE POINT MD    0536   54     160/ 10/ 14 1027.7F
SOLOMONS ISLAND  0536   54 53  120/  8/ 11 1026.9F
BISHOPS HEAD MD  0536   53 57   90/ 12/ 14 1027.7F
PINEY POINT MD   0548          130/ 14/ 16   N/A
POTOMAC MD       0600   55 54  110/ 14/ 17 1027.9    2/ 3
CAMBRIDGE MD     0536   52 56              1028.7F
LEWISETTA VA     0536   55 56  120/ 13/ 15 1026.7F
RAPPAHANNOCK LGT 0548           90/ 17/ 19 1026.7F
STINGRAY PT      0600   55 54  120/ 14/ 16 1026.8    2/ 3
YORK RVR RNG VA  0548   55     110/ 18/ 20 1025.9F
YORKTOWN VA      0548   56 56  110/ 10/ 14 1025.3F
DOMINION TERM VA 0548   56      70/  3/  8 1025.5F
KIPTOPEKE VA     0542      54  100/ 13/ 18   N/A
CAPE HENRY VA    0548   54      90/ 17/ 19   N/A
WILLOUBY STN VA  0548   55     100/ 15/ 17 1025.3F
S CRANEY ISL VA  0548   58     100/ 11/ 14 1025.0F
CAPE HENRY BUOY  0600      51                N/A     4/ 5
1ST LANDING BUOY 0600   54 54  110/ 17/ 21 1025.1    3/ 3
64NM E OF VA BCH 0550   55 50  110/ 16/ 17 1026.1F   4/ 6   2/ 8
DUCK PIER NC     0548   56 54   90/ 11/ 16 1024.2F
44100 DUCK FRF   0545      51                N/A     5/ 7
44056 DUCK FRF   0600      53                N/A     4/ 7
OREGON INLET NC  0542   57 57   90/  9/ 13 1024.2F
HATTERAS NC      0542   66 62  120/ 14/ 19 1022.7F
DIAMOND SHLS NC  0600   69 72  120/ 23/ 29 1022.8
CAPE LOOKOUT NC  0500          110/ 21/ 23 1021.9F
$$




USA.gov is the U.S. government's official web portal to all federal, state and local government web resources and services.